Weather History for Adelaide, SA

Change the Weather History Date:

Monday, April 7, 2014

  Actual Average Record
Temperature  
Mean Temperature 71 °F -  
Max Temperature 81 °F 70 °F 89 °F (2001)
Min Temperature 61 °F 52 °F 46 °F (1999)
Cooling Degree Days 6    
Growing Degree Days 21 (Base 50)    
Moisture  
Dew Point 46 °F    
Average Humidity 36    
Maximum Humidity 68    
Minimum Humidity 17    
Precipitation  
Precipitation 0.00 in 0.06 in - ()
Sea Level Pressure  
Sea Level Pressure 29.98 in    
Wind  
Wind Speed 11 mph ()    
Max Wind Speed 21 mph    
Max Gust Speed 30 mph    
Visibility 13.3 miles    
Events Rain    
Averages and records for this station are not official NWS values.
T = Trace of Precipitation, MM = Missing Value Source: Averaged Metar Reports

Daily Weather History Graph

Daily Weather History Graph

Search for Another Location

Airport:

Trip Planner

Search our weather history database for the weather conditions in past years. The results will help you decide how hot, cold, wet, or windy it might be!

Date:

Astronomy

Apr. 07, 2014 Rise Set
Actual Time 6:32 AM CST 6:02 PM CST
Civil Twilight 6:07 AM CST 6:28 PM CST
Nautical Twilight 5:38 AM CST 6:57 PM CST
Astronomical Twilight 5:08 AM CST 7:26 PM CST
Moon 1:08 PM CST (4/7) 11:48 PM CST (4/7)
Length of Visible Light 12h 20m
Length of Day
11h 30m
Waxing Crescent, 48% of the Moon is Illuminated
Apr 7
Waxing Crescent
Apr 7
First Quarter
Apr 15
Full
Apr 22
Last Quarter
Apr 29
New

Hourly Weather History & Observations

Time (CST) Temp. Dew Point Humidity Pressure Visibility Wind Dir Wind Speed Gust Speed Precip Events Conditions
12:00 AM 68 °F 38 °F 22% 30.04 in 22 mi NE 10.4 mph - -   Partly Cloudy
12:00 AM 68.0 °F 37.4 °F 33% 30.04 in - NE 10.4 mph - N/A   Clear
12:30 AM 68 °F 38 °F 23% 30.04 in - NE 9.2 mph - -  
12:30 AM 68.0 °F 39.2 °F 35% 30.04 in - NE 9.2 mph - N/A   Clear
1:00 AM 68.0 °F 39.2 °F 35% 30.04 in - NE 10.4 mph - N/A   Clear
1:30 AM 68.0 °F 39.2 °F 35% 30.04 in - NE 11.5 mph - N/A   Clear
2:00 AM 69.8 °F 39.2 °F 33% 30.01 in - NE 11.5 mph - N/A   Clear
2:30 AM 68.0 °F 39.2 °F 35% 30.01 in - NE 11.5 mph - N/A   Clear
3:00 AM 69 °F 40 °F 24% 30.02 in 22 mi NE 10.4 mph - -   Partly Cloudy
3:00 AM 68.0 °F 41.0 °F 37% 30.01 in - NE 10.4 mph - N/A   Clear
3:30 AM 68 °F 41 °F 26% 30.01 in - NE 10.4 mph - -  
3:30 AM 68.0 °F 41.0 °F 37% 30.01 in - NE 10.4 mph - N/A   Clear
4:00 AM 68.0 °F 41.0 °F 37% 30.01 in - NE 11.5 mph - N/A   Clear
4:30 AM 68.0 °F 41.0 °F 37% 30.01 in - NE 11.5 mph - N/A   Clear
5:00 AM 68.0 °F 41.0 °F 37% 30.01 in - NE 11.5 mph - N/A   Clear
5:30 AM 69.8 °F 41.0 °F 35% 30.01 in - NE 10.4 mph - N/A   Clear
6:00 AM 69 °F 41 °F 25% 30.02 in 22 mi NE 10.4 mph - -   Partly Cloudy
6:00 AM 69.8 °F 41.0 °F 35% 30.01 in - NE 10.4 mph - N/A   Clear
6:30 AM 70 °F 40 °F 23% 30.03 in - NE 9.2 mph - -  
6:30 AM 69.8 °F 41.0 °F 35% 30.01 in - NE 9.2 mph - N/A   Clear
7:00 AM 69.8 °F 41.0 °F 35% 30.01 in - NE 12.7 mph - N/A   Clear
7:30 AM 69.8 °F 41.0 °F 35% 30.04 in - NE 13.8 mph - N/A   Clear
8:00 AM 71.6 °F 41.0 °F 33% 30.04 in - NNE 12.7 mph - N/A   Clear
8:30 AM 71.6 °F 41.0 °F 33% 30.04 in - NE 10.4 mph - N/A   Clear
9:00 AM 74 °F 41 °F 20% 30.04 in 19 mi NE 11.5 mph - -   Partly Cloudy
9:00 AM 75.2 °F 41.0 °F 29% 30.04 in - NE 11.5 mph - N/A   Clear
9:30 AM 75 °F 41 °F 19% 30.03 in - NE 11.5 mph - -  
9:30 AM 75.2 °F 41.0 °F 29% 30.01 in - NE 11.5 mph - N/A   Clear
10:00 AM 75.2 °F 42.8 °F 31% 30.01 in - NNE 18.4 mph - N/A   Clear
10:30 AM 77.0 °F 42.8 °F 29% 30.01 in - NE 17.3 mph - N/A   Clear
11:00 AM 77.0 °F 44.6 °F 32% 29.98 in - NNE 18.4 mph - N/A   Clear
11:30 AM 80.6 °F 42.8 °F 26% 29.98 in - NNE 16.1 mph - N/A   Clear
12:00 PM 81 °F 43 °F 17% 29.98 in 19 mi NNE 18.4 mph - -   Overcast
12:00 PM 80.6 °F 42.8 °F 26% 29.98 in - NNE 18.4 mph - N/A   Clear
12:30 PM 79 °F 43 °F 18% 29.97 in - North 12.7 mph - -  
12:30 PM 78.8 °F 42.8 °F 28% 29.95 in - North 12.7 mph - N/A   Clear
1:00 PM 77.0 °F 46.4 °F 34% 29.95 in - North 8.1 mph - N/A   Clear
1:30 PM 71.6 °F 59.0 °F 64% 29.95 in 6.2 mi West 9.2 mph - N/A Rain Light Rain
2:00 PM 71.6 °F 57.2 °F 60% 29.95 in - SW 5.8 mph - N/A   Clear
2:30 PM 73.4 °F 55.4 °F 53% 29.95 in - South 6.9 mph - N/A   Clear
3:00 PM 74 °F 54 °F 40% 29.95 in 19 mi SSE 4.6 mph - -   Overcast
3:00 PM 73.4 °F 53.6 °F 50% 29.95 in - SSE 4.6 mph - N/A   Clear
3:30 PM 76 °F 52 °F 33% 29.94 in - East 4.6 mph - -  
3:30 PM 75.2 °F 51.8 °F 44% 29.92 in - East 4.6 mph - N/A   Clear
4:00 PM 77.0 °F 46.4 °F 34% 29.92 in - NE 12.7 mph - N/A   Clear
4:30 PM 78.8 °F 44.6 °F 30% 29.92 in - ENE 16.1 mph - N/A   Clear
5:00 PM 77.0 °F 46.4 °F 34% 29.92 in - ENE 13.8 mph - N/A   Clear
5:30 PM 77.0 °F 48.2 °F 36% 29.92 in - NE 10.4 mph - N/A   Clear
6:00 PM 76 °F 48 °F 27% 29.91 in 19 mi NE 11.5 mph - -   Mostly Cloudy
6:00 PM 77.0 °F 48.2 °F 36% 29.89 in - NE 11.5 mph - N/A   Clear
6:30 PM 77 °F 48 °F 25% 29.91 in - NE 10.4 mph - -  
6:30 PM 77.0 °F 48.2 °F 36% 29.89 in - NE 10.4 mph - N/A   Clear
7:00 PM 77.0 °F 48.2 °F 36% 29.89 in - ENE 13.8 mph - N/A   Clear
7:30 PM 77.0 °F 48.2 °F 36% 29.89 in - ENE 15.0 mph - N/A   Clear
8:00 PM 77.0 °F 48.2 °F 36% 29.89 in - ENE 16.1 mph - N/A   Clear
8:30 PM 77.0 °F 48.2 °F 36% 29.92 in - NE 20.7 mph - N/A   Clear
9:00 PM 76 °F 49 °F 28% 29.94 in 19 mi NE 20.7 mph - -   Partly Cloudy
9:00 PM 77.0 °F 48.2 °F 36% 29.92 in - NE 20.7 mph - N/A   Clear
9:30 PM 73 °F 54 °F 40% 29.97 in - North 16.1 mph - -  
9:30 PM 73.4 °F 53.6 °F 50% 29.95 in 6.2 mi North 16.1 mph - N/A Rain Light Rain
9:33 PM 73.4 °F 53.6 °F 50% 29.95 in 6.2 mi North 18.4 mph 29.9 mph N/A Rain Light Rain
10:00 PM 69.8 °F 57.2 °F 64% 29.95 in 6.2 mi North 19.6 mph - N/A Rain Light Rain
10:30 PM 69.8 °F 57.2 °F 64% 29.95 in - NNE 19.6 mph - N/A   Clear
11:00 PM 68.0 °F 57.2 °F 68% 29.95 in - NE 16.1 mph - N/A   Clear
11:30 PM 68.0 °F 57.2 °F 68% 29.95 in - NNE 10.4 mph - N/A   Clear